Weather Roundup
Issued by NWS Chicago, IL

Home | Current Version | Previous Version | Text Only | Print | Product List | Glossary Off
Versions: 1 2 3 4 5 6 7 8 9 10 11 12 13 14 15 16 17 18 19 20 21 22 23 24 25 26 27 28 29 30 31 32 33 34 35 36 37 38 39 40 41 42 43 44 45 46 47 48 49 50

000
NZUS59 KLOT 261009
HRRLOT

CHICAGO AREA WEATHER ROUNDUP
NATIONAL WEATHER SERVICE CHICAGO/ROMEOVILLE IL
500 AM CDT FRI MAY 26 2017

NOTE: "FAIR" INDICATES FEW OR NO CLOUDS BELOW 12,000 FEET WITH NO
SIGNIFICANT WEATHER AND/OR OBSTRUCTIONS TO VISIBILITY.

* THESE STATIONS ARE NOT UNDER NWS QUALITY CONTROL. THEY ALSO MAY NOT
  REPORT WEATHER SUCH AS PRECIPITATION OR FOG.

ILZ005-006-012>014-019>023-261100-
NORTHEAST ILLINOIS

CITY           SKY/WX    TMP DP  RH WIND       PRES   REMARKS
OHARE          CLOUDY    54  50  86 CALM      29.82R
MIDWAY         CLOUDY    55  51  86 CALM      29.83R
AURORA         PTCLDY    54  52  93 CALM      29.84R FOG
LANSING*       CLOUDY    48  48 100 CALM      29.84R FOG
JOLIET*        CLOUDY    54  53  99 CALM      29.84R FOG
WAUKEGAN       PTCLDY    51  51 100 CALM      29.82S FOG
DUPAGE AIRPORT CLOUDY    54  53  97 CALM      29.83R
WHEELING       PTCLDY    52  51  97 CALM      29.84R
KANKAKEE*      CLEAR     49  49  97 CALM      29.85R FOG
MORRIS*        CLOUDY    55  53  95 CALM      29.82R FOG
LEWIS AIRPORT* CLOUDY    52  52 100 CALM      29.84R FOG
NORTHERLY ISL    N/A     57  50  77 W3          N/A
$$

WIZ051-052-058>065-066-070>072-261100-
SOUTHEAST WISCONSIN

CITY           SKY/WX    TMP DP  RH WIND       PRES   REMARKS
MILWAUKEE      CLOUDY    55  53  93 W3        29.83R
KENOSHA*       CLOUDY    53  51  93 W3        29.83S
RACINE*        MOCLDY    52  51  97 SW5       29.84R
WAUKESHA       LGT RAIN  50  50 100 CALM      29.85R
WEST BEND      CLOUDY    50  50 100 CALM      29.84R
$$

INZ001>003-010>013-019-020-261100-
NORTHWEST INDIANA

CITY           SKY/WX    TMP DP  RH WIND       PRES   REMARKS
GARY*          NOT AVBL
MICHIGAN CITY* NOT AVBL
RENSSELAER*    NOT AVBL
VALPARAISO     CLEAR     51  49  92 CALM      29.84R FOG
$$

LMZ740>746-261100-
SOUTHERN LAKE MICHIGAN

STATION/POSITION TIME  SKY/WX   TEMP WIND        PRES    VSBY
                                AIR  DIR/SP/G
                 (UTC)          (F)  (DEG/KT/KT) (MB)    (MI)
HARRISON CRIB    0940            59  270/  3/  3   N/A
BURNHAM HARBOR   1000            57  280/  2/  6   N/A
CALUMET HARBOR   0942            54  230/  2/  3 1009.7R
BURNS HARBOR     0940            53  180/  3/  4 1010.8R
MICHIGAN CITY    0940            54     CALM       N/A
$$

ABBREVIATIONS USED IN REMARKS
   TC - TEMPERATURE IN CELSIUS
  WCI - WIND CHILL INDEX
   HX - HEAT INDEX
  VSB - VISIBILITY
$$




USA.gov is the U.S. government's official web portal to all federal, state and local government web resources and services.